WZZ94KN EPKK-ESMS

Flight info

Callsign WZZ94KN
Flight time 1h 13m
Altitude 36000
Route NAVUR N744 OVBOR N133 POLON M70 BABEN L617 ROE
Aircraft A20N/M-SDE2E3FGHIRWXY/LB1

Departure

Time 2026-04-22 18:59
Airport Kraków John Paul II International Airport (EPKK)

Arrival

Time 2026-04-22 20:13
Airport Malmö Sturup Airport (ESMS)
Time Latitude Longitude Altitude Speed Heading
2026-04-22 18:23 50.07499 19.80275 786 ft 0 kts 168°
2026-04-22 18:41 50.07500 19.80275 793 ft 0 kts 168°
2026-04-22 18:43 50.07497 19.80275 793 ft 3 kts 168°
2026-04-22 18:43 50.07453 19.80308 793 ft 10 kts 132°
2026-04-22 18:43 50.07469 19.80374 793 ft 11 kts 29°
2026-04-22 18:43 50.07565 19.80415 793 ft 16 kts 13°
2026-04-22 18:44 50.07621 19.80412 793 ft 0 kts 348°
2026-04-22 18:49 50.07623 19.80411 793 ft 2 kts 349°
2026-04-22 18:49 50.07670 19.80397 793 ft 10 kts 347°
2026-04-22 18:49 50.07709 19.80383 793 ft 0 kts 347°
2026-04-22 18:52 50.07752 19.80367 793 ft 2 kts 347°
2026-04-22 18:54 50.07766 19.80362 793 ft 7 kts 347°
2026-04-22 18:54 50.07789 19.80354 793 ft 0 kts 347°
2026-04-22 18:55 50.07793 19.80353 793 ft 4 kts 347°
2026-04-22 18:55 50.07826 19.80342 793 ft 3 kts 347°
2026-04-22 18:57 50.07827 19.80341 793 ft 1 kts 347°
2026-04-22 18:57 50.07875 19.80325 793 ft 11 kts 347°
2026-04-22 18:57 50.07965 19.80293 792 ft 14 kts 344°
2026-04-22 18:58 50.08007 19.80166 793 ft 15 kts 259°
2026-04-22 18:58 50.08005 19.80150 793 ft 0 kts 258°
2026-04-22 18:58 50.08003 19.80129 793 ft 5 kts 258°
2026-04-22 18:59 50.07978 19.79943 792 ft 44 kts 258°
2026-04-22 18:59 50.07870 19.79146 794 ft 108 kts 258°
2026-04-22 18:59 50.07678 19.77674 913 ft 152 kts 259°
2026-04-22 18:59 50.07478 19.76140 1709 ft 143 kts 261°
2026-04-22 19:00 50.07257 19.74597 2319 ft 149 kts 262°
2026-04-22 19:00 50.07019 19.72920 2761 ft 173 kts 263°
2026-04-22 19:00 50.06740 19.70879 2943 ft 212 kts 263°
2026-04-22 19:00 50.06421 19.68510 3495 ft 230 kts 265°
2026-04-22 19:01 50.06444 19.66040 4290 ft 229 kts 289°
2026-04-22 19:01 50.07222 19.63934 5121 ft 224 kts 320°
2026-04-22 19:01 50.08558 19.62749 5735 ft 224 kts 343°
2026-04-22 19:01 50.10076 19.62144 5970 ft 226 kts 349°
2026-04-22 19:02 50.11625 19.61683 5993 ft 227 kts 352°
2026-04-22 19:02 50.13197 19.61626 5996 ft 227 kts
2026-04-22 19:02 50.14689 19.62369 6279 ft 232 kts 26°
2026-04-22 19:02 50.16019 19.63840 7079 ft 236 kts 37°
2026-04-22 19:03 50.17266 19.65510 7942 ft 237 kts 38°
2026-04-22 19:03 50.18512 19.67225 8793 ft 240 kts 39°
2026-04-22 19:03 50.19774 19.68960 9647 ft 244 kts 38°
2026-04-22 19:03 50.21066 19.70730 10440 ft 248 kts 39°
2026-04-22 19:04 50.22369 19.72508 11245 ft 250 kts 39°
2026-04-22 19:04 50.23679 19.74296 12090 ft 251 kts 39°
2026-04-22 19:04 50.25051 19.76008 12696 ft 263 kts 31°
2026-04-22 19:04 50.26776 19.77213 12994 ft 283 kts 15°
2026-04-22 19:05 50.28783 19.77833 13315 ft 305 kts
2026-04-22 19:05 50.30940 19.78277 13841 ft 318 kts
2026-04-22 19:05 50.33159 19.78683 14532 ft 323 kts
2026-04-22 19:05 50.35413 19.79087 15267 ft 327 kts
2026-04-22 19:06 50.37681 19.79493 16016 ft 330 kts
2026-04-22 19:06 50.39977 19.79907 16705 ft 333 kts
2026-04-22 19:06 50.42288 19.80324 17076 ft 335 kts
2026-04-22 19:07 50.46967 19.79843 17281 ft 344 kts 349°
2026-04-22 19:07 50.49242 19.78771 17381 ft 347 kts 345°
2026-04-22 19:07 50.51506 19.77451 17466 ft 348 kts 343°
2026-04-22 19:07 50.53763 19.75987 17766 ft 352 kts 342°
2026-04-22 19:08 50.56022 19.74458 18486 ft 354 kts 342°
2026-04-22 19:08 50.58294 19.72910 19119 ft 356 kts 342°
2026-04-22 19:08 50.60587 19.71362 19723 ft 359 kts 342°
2026-04-22 19:08 50.62902 19.69816 20332 ft 362 kts 342°
2026-04-22 19:09 50.65205 19.68292 20917 ft 365 kts 343°
2026-04-22 19:09 50.67559 19.66744 21498 ft 368 kts 343°
2026-04-22 19:09 50.69935 19.65184 22070 ft 372 kts 343°
2026-04-22 19:09 50.72329 19.63613 22626 ft 375 kts 343°
2026-04-22 19:10 50.74749 19.62025 23166 ft 378 kts 343°
2026-04-22 19:10 50.77191 19.60418 23694 ft 381 kts 343°
2026-04-22 19:10 50.79651 19.58798 24116 ft 384 kts 343°
2026-04-22 19:10 50.82128 19.57164 24519 ft 387 kts 343°
2026-04-22 19:11 50.84623 19.55514 24915 ft 390 kts 343°
2026-04-22 19:11 50.87135 19.53851 25327 ft 393 kts 343°
2026-04-22 19:11 50.89675 19.52168 25726 ft 395 kts 343°
2026-04-22 19:11 50.91928 19.50673 26061 ft 398 kts 343°
2026-04-22 19:12 50.94460 19.48991 26434 ft 400 kts 343°
2026-04-22 19:12 50.97043 19.47274 26798 ft 403 kts 343°
2026-04-22 19:12 50.99638 19.45547 27157 ft 406 kts 343°
2026-04-22 19:12 51.02258 19.43801 27506 ft 408 kts 343°
2026-04-22 19:13 51.04885 19.42048 27846 ft 411 kts 343°
2026-04-22 19:13 51.07535 19.40278 28178 ft 414 kts 343°
2026-04-22 19:13 51.10199 19.38496 28501 ft 416 kts 343°
2026-04-22 19:13 51.12882 19.36699 28820 ft 419 kts 344°
2026-04-22 19:14 51.15575 19.34893 29144 ft 421 kts 344°
2026-04-22 19:14 51.18287 19.33072 29454 ft 424 kts 344°
2026-04-22 19:14 51.21012 19.31240 29741 ft 426 kts 344°
2026-04-22 19:14 51.23754 19.29394 30031 ft 429 kts 344°
2026-04-22 19:15 51.25580 19.28164 30212 ft 430 kts 344°
2026-04-22 19:15 51.29254 19.25685 30542 ft 433 kts 344°
2026-04-22 19:15 51.32040 19.23801 30797 ft 435 kts 345°
2026-04-22 19:15 51.34823 19.21914 31141 ft 434 kts 345°
2026-04-22 19:16 51.37605 19.20024 31499 ft 433 kts 345°
2026-04-22 19:16 51.40379 19.18137 31840 ft 432 kts 345°
2026-04-22 19:16 51.43141 19.16258 32168 ft 431 kts 346°
2026-04-22 19:16 51.45894 19.14382 32484 ft 430 kts 346°
2026-04-22 19:17 51.48649 19.12505 32804 ft 429 kts 346°
2026-04-22 19:17 51.51363 19.10652 33124 ft 428 kts 346°
2026-04-22 19:17 51.54103 19.08780 33434 ft 427 kts 346°
2026-04-22 19:17 51.56842 19.06906 33744 ft 426 kts 347°
2026-04-22 19:18 51.59574 19.05034 34052 ft 425 kts 347°
2026-04-22 19:18 51.62296 19.03165 34302 ft 425 kts 346°
2026-04-22 19:18 51.65020 19.01295 34514 ft 425 kts 346°
2026-04-22 19:18 51.67742 18.99424 34699 ft 425 kts 346°
2026-04-22 19:19 51.70432 18.97573 34910 ft 425 kts 346°
2026-04-22 19:19 51.73152 18.95698 35106 ft 425 kts 346°
2026-04-22 19:19 51.75871 18.93820 35297 ft 425 kts 346°
2026-04-22 19:19 51.78598 18.91936 35502 ft 425 kts 345°
2026-04-22 19:20 51.81323 18.90048 35681 ft 425 kts 345°
2026-04-22 19:20 51.84049 18.88159 35872 ft 425 kts 345°
2026-04-22 19:20 51.86741 18.86290 36045 ft 426 kts 345°
2026-04-22 19:21 51.92168 18.82513 36112 ft 422 kts 345°
2026-04-22 19:21 51.97546 18.78756 36112 ft 420 kts 345°
2026-04-22 19:22 52.02917 18.75004 36113 ft 420 kts 345°
2026-04-22 19:22 52.08258 18.71265 36114 ft 420 kts 345°
2026-04-22 19:23 52.13615 18.67502 36116 ft 420 kts 345°
2026-04-22 19:23 52.18981 18.63722 36116 ft 419 kts 345°
2026-04-22 19:24 52.24339 18.59937 36115 ft 419 kts 345°
2026-04-22 19:24 52.29691 18.56147 36115 ft 419 kts 345°
2026-04-22 19:25 52.35020 18.52363 36119 ft 419 kts 345°
2026-04-22 19:25 52.40376 18.48549 36118 ft 419 kts 345°
2026-04-22 19:26 52.45734 18.44724 36123 ft 419 kts 345°
2026-04-22 19:26 52.51091 18.40889 36123 ft 420 kts 345°
2026-04-22 19:27 52.56419 18.37065 36132 ft 420 kts 345°
2026-04-22 19:27 52.61750 18.33037 36130 ft 426 kts 338°
2026-04-22 19:28 52.66527 18.26982 36124 ft 439 kts 325°
2026-04-22 19:28 52.70934 18.19917 36136 ft 443 kts 322°
2026-04-22 19:29 52.75252 18.12659 36131 ft 443 kts 322°
2026-04-22 19:29 52.79546 18.05431 36130 ft 443 kts 322°
2026-04-22 19:30 52.83155 17.99385 36131 ft 443 kts 322°
2026-04-22 19:30 52.88228 17.90897 36132 ft 443 kts 322°
2026-04-22 19:31 52.92539 17.83664 36135 ft 443 kts 322°
2026-04-22 19:31 52.96880 17.76357 36132 ft 443 kts 322°
2026-04-22 19:32 53.01213 17.69041 36134 ft 444 kts 322°
2026-04-22 19:32 53.05508 17.61766 36135 ft 444 kts 322°
2026-04-22 19:33 53.09827 17.54428 36141 ft 444 kts 321°
2026-04-22 19:33 53.14150 17.47061 36147 ft 444 kts 321°
2026-04-22 19:34 53.18472 17.39673 36150 ft 444 kts 321°
2026-04-22 19:34 53.22786 17.32275 36153 ft 444 kts 321°
2026-04-22 19:35 53.27095 17.24865 36154 ft 444 kts 321°
2026-04-22 19:35 53.30651 17.18731 36158 ft 444 kts 321°
2026-04-22 19:36 53.35674 17.10040 36153 ft 445 kts 321°
2026-04-22 19:36 53.39979 17.02568 36155 ft 445 kts 321°
2026-04-22 19:37 53.44272 16.95092 36156 ft 445 kts 321°
2026-04-22 19:37 53.48558 16.87606 36159 ft 445 kts 321°
2026-04-22 19:38 53.52823 16.80132 36163 ft 445 kts 321°
2026-04-22 19:38 53.57109 16.72598 36161 ft 445 kts 321°
2026-04-22 19:39 53.61391 16.65046 36167 ft 445 kts 320°
2026-04-22 19:39 53.65649 16.57515 36167 ft 445 kts 320°
2026-04-22 19:40 53.69918 16.49938 36167 ft 445 kts 320°
2026-04-22 19:40 53.73495 16.43572 36169 ft 445 kts 320°
2026-04-22 19:41 53.77732 16.36010 36172 ft 446 kts 320°
2026-04-22 19:41 53.81999 16.28370 36174 ft 446 kts 320°
2026-04-22 19:42 53.86258 16.20721 36174 ft 446 kts 320°
2026-04-22 19:42 53.90523 16.13036 36175 ft 447 kts 320°
2026-04-22 19:43 53.96954 16.01411 36176 ft 452 kts 320°
2026-04-22 19:43 54.01222 15.93655 36176 ft 452 kts 320°
2026-04-22 19:44 54.05513 15.85832 36130 ft 452 kts 320°
2026-04-22 19:44 54.07650 15.81926 35718 ft 451 kts 320°
2026-04-22 19:44 54.09795 15.78003 35019 ft 453 kts 320°
2026-04-22 19:45 54.11948 15.74063 34375 ft 455 kts 320°
2026-04-22 19:45 54.14110 15.70098 33754 ft 455 kts 320°
2026-04-22 19:45 54.16221 15.66212 33315 ft 449 kts 319°
2026-04-22 19:45 54.18335 15.62312 32847 ft 445 kts 319°
2026-04-22 19:46 54.20429 15.58442 32376 ft 441 kts 319°
2026-04-22 19:46 54.22506 15.54601 31911 ft 437 kts 319°
2026-04-22 19:46 54.24557 15.50803 31442 ft 433 kts 319°
2026-04-22 19:46 54.26593 15.47030 30989 ft 429 kts 319°
2026-04-22 19:47 54.28585 15.43332 30530 ft 426 kts 319°
2026-04-22 19:47 54.30592 15.39603 30042 ft 423 kts 319°
2026-04-22 19:47 54.32581 15.35901 29545 ft 419 kts 319°
2026-04-22 19:47 54.34542 15.32242 29102 ft 414 kts 319°
2026-04-22 19:48 54.36483 15.28616 28646 ft 410 kts 318°
2026-04-22 19:48 54.38560 15.25362 28125 ft 399 kts 331°
2026-04-22 19:48 54.40927 15.23054 27802 ft 385 kts 340°
2026-04-22 19:48 54.43319 15.21136 27477 ft 377 kts 342°
2026-04-22 19:49 54.45726 15.19395 27046 ft 373 kts 343°
2026-04-22 19:49 54.48099 15.17779 26645 ft 370 kts 344°
2026-04-22 19:49 54.50524 15.16169 26228 ft 367 kts 344°
2026-04-22 19:49 54.52873 15.14616 25814 ft 365 kts 344°
2026-04-22 19:50 54.55233 15.13044 25399 ft 362 kts 343°
2026-04-22 19:50 54.57578 15.11468 24988 ft 360 kts 343°
2026-04-22 19:50 54.59897 15.09895 24570 ft 357 kts 343°
2026-04-22 19:50 54.62204 15.08320 24162 ft 355 kts 343°
2026-04-22 19:51 54.64493 15.06752 23752 ft 353 kts 342°
2026-04-22 19:51 54.66771 15.05188 23284 ft 350 kts 342°
2026-04-22 19:51 54.69021 15.03638 22869 ft 346 kts 342°
2026-04-22 19:51 54.71245 15.02102 22480 ft 342 kts 342°
2026-04-22 19:52 54.73444 15.00582 22091 ft 338 kts 342°
2026-04-22 19:52 54.75623 14.99076 21685 ft 335 kts 342°
2026-04-22 19:52 54.77757 14.97600 21304 ft 332 kts 341°
2026-04-22 19:52 54.79893 14.96124 20921 ft 329 kts 341°
2026-04-22 19:53 54.82009 14.94645 20538 ft 326 kts 340°
2026-04-22 19:53 54.84089 14.93098 20148 ft 324 kts 339°
2026-04-22 19:53 54.86151 14.91530 19767 ft 322 kts 339°
2026-04-22 19:53 54.88194 14.89970 19363 ft 319 kts 339°
2026-04-22 19:54 54.90220 14.88422 18990 ft 317 kts 339°
2026-04-22 19:54 54.92232 14.86885 18620 ft 314 kts 338°
2026-04-22 19:54 54.94220 14.85364 18225 ft 311 kts 338°
2026-04-22 19:54 54.96194 14.83852 17841 ft 308 kts 338°
2026-04-22 19:55 54.98143 14.82358 17482 ft 304 kts 338°
2026-04-22 19:55 55.00074 14.80877 17126 ft 301 kts 338°
2026-04-22 19:55 55.01979 14.79414 16769 ft 298 kts 338°
2026-04-22 19:55 55.03866 14.77948 16345 ft 298 kts 336°
2026-04-22 19:56 55.05621 14.76017 16016 ft 297 kts 322°
2026-04-22 19:56 55.06938 14.73300 15689 ft 300 kts 304°
2026-04-22 19:56 55.07791 14.69961 15364 ft 301 kts 295°
2026-04-22 19:56 55.08481 14.66507 15003 ft 301 kts 293°
2026-04-22 19:57 55.09140 14.63061 14645 ft 299 kts 293°
2026-04-22 19:57 55.09801 14.59619 14283 ft 298 kts 294°
2026-04-22 19:57 55.10462 14.56199 13927 ft 297 kts 294°
2026-04-22 19:57 55.11124 14.52794 13562 ft 295 kts 294°
2026-04-22 19:58 55.11779 14.49426 13217 ft 292 kts 294°
2026-04-22 19:58 55.12429 14.46086 12877 ft 289 kts 294°
2026-04-22 19:58 55.13077 14.42756 12524 ft 287 kts 294°
2026-04-22 19:58 55.13720 14.39458 12084 ft 289 kts 294°
2026-04-22 19:59 55.14365 14.36147 11599 ft 291 kts 294°
2026-04-22 20:00 55.18066 14.16948 10006 ft 257 kts 294°
2026-04-22 20:00 55.18642 14.13954 9482 ft 261 kts 294°
2026-04-22 20:01 55.19220 14.10955 9173 ft 259 kts 294°
2026-04-22 20:01 55.19786 14.07996 8878 ft 256 kts 294°
2026-04-22 20:01 55.20349 14.05053 8584 ft 253 kts 294°
2026-04-22 20:01 55.20905 14.02139 8287 ft 250 kts 294°
2026-04-22 20:02 55.21447 13.99295 8006 ft 248 kts 293°
2026-04-22 20:02 55.21991 13.96439 7717 ft 246 kts 293°
2026-04-22 20:02 55.22530 13.93601 7432 ft 244 kts 293°
2026-04-22 20:02 55.23063 13.90791 7144 ft 242 kts 293°
2026-04-22 20:03 55.23592 13.87998 6859 ft 240 kts 293°
2026-04-22 20:03 55.24116 13.85229 6589 ft 239 kts 293°
2026-04-22 20:03 55.24639 13.82464 6301 ft 238 kts 293°
2026-04-22 20:03 55.25160 13.79703 6026 ft 237 kts 293°
2026-04-22 20:04 55.25676 13.76961 5752 ft 236 kts 292°
2026-04-22 20:04 55.26188 13.74236 5471 ft 234 kts 292°
2026-04-22 20:04 55.26695 13.71534 5196 ft 233 kts 293°
2026-04-22 20:04 55.27192 13.68884 4919 ft 231 kts 293°
2026-04-22 20:05 55.27692 13.66211 4645 ft 229 kts 293°
2026-04-22 20:05 55.28190 13.63551 4382 ft 228 kts 293°
2026-04-22 20:05 55.28682 13.60920 4118 ft 226 kts 292°
2026-04-22 20:05 55.29171 13.58298 3861 ft 224 kts 292°
2026-04-22 20:06 55.29647 13.55735 3691 ft 216 kts 292°
2026-04-22 20:06 55.30100 13.53280 3558 ft 206 kts 293°
2026-04-22 20:06 55.30538 13.50915 3443 ft 204 kts 293°
2026-04-22 20:06 55.31012 13.48587 3293 ft 204 kts 300°
2026-04-22 20:07 55.31825 13.46622 3175 ft 198 kts 319°
2026-04-22 20:07 55.32877 13.45101 3092 ft 195 kts 324°
2026-04-22 20:07 55.33975 13.43678 2869 ft 196 kts 324°
2026-04-22 20:07 55.35076 13.42299 2634 ft 190 kts 328°
2026-04-22 20:08 55.36259 13.41401 2460 ft 179 kts 342°
2026-04-22 20:08 55.37436 13.40980 2459 ft 164 kts 348°
2026-04-22 20:08 55.38499 13.40734 2458 ft 145 kts 349°
2026-04-22 20:08 55.39454 13.40544 2484 ft 134 kts 349°
2026-04-22 20:09 55.40397 13.40349 2454 ft 137 kts 349°
2026-04-22 20:09 55.41345 13.40147 2432 ft 138 kts 348°
2026-04-22 20:09 55.42298 13.39942 2272 ft 137 kts 348°
2026-04-22 20:09 55.43249 13.39747 2083 ft 138 kts 348°
2026-04-22 20:10 55.44200 13.39554 1882 ft 137 kts 349°
2026-04-22 20:10 55.45143 13.39360 1692 ft 136 kts 349°
2026-04-22 20:10 55.46073 13.39170 1495 ft 136 kts 349°
2026-04-22 20:10 55.47012 13.38978 1320 ft 136 kts 349°
2026-04-22 20:11 55.47948 13.38785 1140 ft 135 kts 349°
2026-04-22 20:11 55.48882 13.38593 948 ft 135 kts 350°
2026-04-22 20:11 55.49813 13.38403 767 ft 134 kts 350°
2026-04-22 20:11 55.50740 13.38209 608 ft 133 kts 351°
2026-04-22 20:12 55.51666 13.38023 396 ft 134 kts 351°
2026-04-22 20:12 55.52599 13.37836 259 ft 134 kts 350°
2026-04-22 20:12 55.53336 13.37666 242 ft 110 kts 354°
2026-04-22 20:13 55.53934 13.37560 243 ft 53 kts 354°
2026-04-22 20:13 55.54131 13.37514 243 ft 25 kts 352°
2026-04-22 20:13 55.54221 13.37405 239 ft 15 kts 268°
2026-04-22 20:13 55.54214 13.37290 235 ft 2 kts 263°
2026-04-22 20:14 55.54212 13.37256 235 ft 4 kts 263°
2026-04-22 20:14 55.54203 13.37143 234 ft 15 kts 255°
2026-04-22 20:14 55.54172 13.36916 234 ft 23 kts 262°
2026-04-22 20:14 55.54149 13.36764 236 ft 6 kts 198°